WZZ37P EGCC-EDDF

Flight info

Callsign WZZ37P
Flight time N/A
Altitude 35000
Route SONEX UL975 DESIG L603 DOLAS DCT NAVPI DCT NOLRU DCT DIXAT ROLIS5A/25R
Aircraft A321/M-SDE3FGHIRWY/LB1

Departure

Time N/A
Airport Manchester Airport (EGCC)

Arrival

Time 2026-04-15 16:06
Airport Frankfurt Main Airport (EDDF)
Time Latitude Longitude Altitude Speed Heading
2026-04-15 15:51 50.17297 8.49154 8191 ft 288 kts 92°
2026-04-15 15:51 50.17256 8.52219 8188 ft 275 kts 92°
2026-04-15 15:52 50.17216 8.55128 8188 ft 261 kts 92°
2026-04-15 15:52 50.17178 8.57885 8190 ft 247 kts 92°
2026-04-15 15:52 50.17140 8.60531 8204 ft 244 kts 92°
2026-04-15 15:52 50.17101 8.63171 8195 ft 243 kts 92°
2026-04-15 15:53 50.17065 8.65806 8179 ft 244 kts 92°
2026-04-15 15:53 50.17193 8.68484 8053 ft 249 kts 80°
2026-04-15 15:53 50.17672 8.71072 7898 ft 249 kts 70°
2026-04-15 15:53 50.18282 8.73595 7771 ft 248 kts 70°
2026-04-15 15:54 50.18883 8.76115 7648 ft 247 kts 70°
2026-04-15 15:54 50.19481 8.78629 7526 ft 247 kts 70°
2026-04-15 15:54 50.20073 8.81138 7400 ft 246 kts 70°
2026-04-15 15:54 50.20654 8.83610 7276 ft 245 kts 71°
2026-04-15 15:55 50.21242 8.86112 7055 ft 244 kts 71°
2026-04-15 15:55 50.21822 8.88591 6817 ft 242 kts 71°
2026-04-15 15:55 50.22404 8.91075 6575 ft 245 kts 71°
2026-04-15 15:55 50.22987 8.93570 6318 ft 245 kts 71°
2026-04-15 15:56 50.23570 8.96059 6061 ft 243 kts 71°
2026-04-15 15:56 50.24149 8.98531 5803 ft 242 kts 71°
2026-04-15 15:56 50.24725 9.00988 5546 ft 240 kts 71°
2026-04-15 15:56 50.25295 9.03437 5293 ft 239 kts 71°
2026-04-15 15:57 50.25774 9.05907 5061 ft 235 kts 86°
2026-04-15 15:57 50.25493 9.08372 5001 ft 232 kts 119°
2026-04-15 15:57 50.24408 9.10180 5006 ft 230 kts 151°
2026-04-15 15:57 50.22881 9.10843 5018 ft 230 kts 174°
2026-04-15 15:58 50.21288 9.11081 5010 ft 230 kts 175°
2026-04-15 15:58 50.19699 9.10957 5004 ft 230 kts 196°
2026-04-15 15:58 50.18325 9.09772 5004 ft 231 kts 222°
2026-04-15 15:58 50.17420 9.07703 5011 ft 233 kts 244°
2026-04-15 15:59 50.16826 9.05351 5009 ft 234 kts 249°
2026-04-15 15:59 50.16282 9.02963 5006 ft 234 kts 249°
2026-04-15 15:59 50.15731 9.00577 5000 ft 233 kts 249°
2026-04-15 15:59 50.15174 8.98192 4998 ft 233 kts 249°
2026-04-15 16:00 50.14631 8.95871 4991 ft 225 kts 249°
2026-04-15 16:00 50.14095 8.93585 4998 ft 223 kts 249°
2026-04-15 16:00 50.13565 8.91327 4996 ft 223 kts 248°
2026-04-15 16:00 50.13030 8.89048 4996 ft 222 kts 249°
2026-04-15 16:01 50.12518 8.86865 4987 ft 207 kts 248°
2026-04-15 16:01 50.12030 8.84791 4838 ft 202 kts 248°
2026-04-15 16:01 50.11548 8.82748 4556 ft 200 kts 249°
2026-04-15 16:01 50.11077 8.80747 4268 ft 192 kts 248°
2026-04-15 16:02 50.10625 8.78830 3995 ft 185 kts 248°
2026-04-15 16:02 50.10194 8.77007 3744 ft 179 kts 248°
2026-04-15 16:02 50.09771 8.75216 3506 ft 171 kts 248°
2026-04-15 16:02 50.09366 8.73504 3271 ft 167 kts 249°
2026-04-15 16:03 50.08965 8.71810 3011 ft 166 kts 249°
2026-04-15 16:03 50.08571 8.70146 2767 ft 162 kts 248°
2026-04-15 16:03 50.08181 8.68503 2532 ft 161 kts 248°
2026-04-15 16:03 50.07807 8.66922 2309 ft 151 kts 247°
2026-04-15 16:04 50.07446 8.65405 2096 ft 148 kts 248°
2026-04-15 16:04 50.07091 8.63910 1886 ft 147 kts 248°
2026-04-15 16:04 50.06738 8.62423 1674 ft 146 kts 248°
2026-04-15 16:04 50.06386 8.60945 1462 ft 145 kts 248°
2026-04-15 16:05 50.06036 8.59466 1250 ft 145 kts 248°
2026-04-15 16:05 50.05683 8.57980 1032 ft 146 kts 248°
2026-04-15 16:05 50.05321 8.56492 825 ft 147 kts 249°
2026-04-15 16:05 50.04977 8.54995 634 ft 147 kts 249°
2026-04-15 16:06 50.04616 8.53505 420 ft 146 kts 249°
2026-04-15 16:06 50.04279 8.52109 350 ft 122 kts 249°
2026-04-15 16:06 50.04088 8.51325 349 ft 42 kts 249°
2026-04-15 16:06 50.03981 8.51035 350 ft 24 kts 231°
2026-04-15 16:07 50.03870 8.50877 354 ft 12 kts 218°
2026-04-15 16:07 50.03823 8.50844 345 ft 0 kts 179°
2026-04-15 16:07 50.03804 8.50848 348 ft 10 kts 165°
2026-04-15 16:08 50.03790 8.50958 349 ft 12 kts 73°
2026-04-15 16:08 50.03820 8.51089 351 ft 13 kts 69°
2026-04-15 16:08 50.03856 8.51230 354 ft 15 kts 70°
2026-04-15 16:08 50.03889 8.51385 349 ft 16 kts 67°
2026-04-15 16:09 50.03928 8.51547 354 ft 17 kts 63°
2026-04-15 16:09 50.03975 8.51716 349 ft 18 kts 70°
2026-04-15 16:09 50.04028 8.51953 353 ft 31 kts 71°
2026-04-15 16:09 50.04127 8.52357 353 ft 43 kts 70°
2026-04-15 16:10 50.04226 8.52789 351 ft 42 kts 71°
2026-04-15 16:10 50.04331 8.53212 352 ft 42 kts 67°
2026-04-15 16:10 50.04402 8.53560 346 ft 32 kts 88°
2026-04-15 16:10 50.04425 8.53908 346 ft 33 kts 79°
2026-04-15 16:11 50.04448 8.54237 351 ft 26 kts 85°
2026-04-15 16:11 50.04448 8.54512 346 ft 21 kts 109°
2026-04-15 16:11 50.04380 8.54700 352 ft 18 kts 131°
2026-04-15 16:11 50.04274 8.54796 350 ft 16 kts 158°
2026-04-15 16:12 50.04172 8.54854 349 ft 14 kts 156°
2026-04-15 16:12 50.04083 8.54911 352 ft 2 kts 159°
2026-04-15 16:12 50.04082 8.54911 352 ft 0 kts 159°
2026-04-15 16:13 50.04081 8.54912 353 ft 1 kts 160°
2026-04-15 16:13 50.04027 8.54949 354 ft 13 kts 135°
2026-04-15 16:13 50.04035 8.55091 351 ft 19 kts 68°
2026-04-15 16:13 50.04102 8.55358 349 ft 29 kts 69°
2026-04-15 16:14 50.04173 8.55654 354 ft 30 kts 67°
2026-04-15 16:14 50.04242 8.55957 354 ft 30 kts 69°
2026-04-15 16:14 50.04321 8.56269 353 ft 32 kts 70°
2026-04-15 16:14 50.04399 8.56601 353 ft 33 kts 70°
2026-04-15 16:15 50.04481 8.56934 352 ft 33 kts 68°
2026-04-15 16:15 50.04558 8.57269 353 ft 33 kts 69°
2026-04-15 16:15 50.04635 8.57589 354 ft 28 kts 71°
2026-04-15 16:15 50.04691 8.57832 349 ft 17 kts 67°
2026-04-15 16:16 50.04760 8.57963 350 ft 16 kts 46°
2026-04-15 16:16 50.04817 8.58113 355 ft 17 kts 71°
2026-04-15 16:16 50.04858 8.58289 347 ft 19 kts 66°
2026-04-15 16:16 50.04905 8.58483 353 ft 20 kts 77°
2026-04-15 16:17 50.04954 8.58676 348 ft 20 kts 69°
2026-04-15 16:17 50.05004 8.58894 355 ft 22 kts 73°
2026-04-15 16:17 50.05050 8.59097 351 ft 19 kts 69°
2026-04-15 16:17 50.05053 8.59180 347 ft 4 kts 131°
2026-04-15 16:18 50.05022 8.59204 353 ft 5 kts 161°
2026-04-15 16:18 50.05010 8.59211 347 ft 0 kts 160°
2026-04-15 16:18 50.05006 8.59213 347 ft 0 kts 160°
2026-04-15 16:19 50.05001 8.59216 353 ft 0 kts 159°
2026-04-15 16:19 50.05000 8.59216 352 ft 0 kts 159°